Back to catalog

OV5-9

LostMilitaryHEO
NORAD 3952·PAYLOAD·🇺🇸 United States

Launched May 23, 1969 from Cape Canaveral Space Force Station

Loading…

Next Passes (next 24 hours)

TLE

StaleSource: Space-Track

Epoch: Apr 30, 1971, 03:31 UTC

1 03952U 69046C   71120.14659721 -.00000433  00000-0  10000-3 0  9995
2 03952  32.9340 146.7171 6905699 208.5650 226.4278  0.46228367  3326

Track OV5-9 in real time with AllMySat

Download on the App Store